Regional Weather Roundup
Issued by NWS

Home | Current Version | Previous Version | Graphics & Text | Print | Product List | Glossary Off
Versions: 1 2 3 4 5 6 7 8 9 10 11 12 13 14 15 16 17 18 19 20 21 22 23 24 25 26 27 28 29 30 31 32 33 34 35 36 37 38 39 40 41 42 43 44 45 46 47 48 49 50

000
ASUS43 KMKX 210600
RWRWI

WISCONSIN REGIONAL WEATHER ROUNDUP
NATIONAL WEATHER SERVICE MILWAUKEE/SULLIVAN WI
100 AM CDT TUE APR 21 2015

NOTE: "FAIR" INDICATES FEW OR NO CLOUDS BELOW 12,000 FEET WITH NO
SIGNIFICANT WEATHER AND/OR OBSTRUCTIONS TO VISIBILITY.

WIZ001-002-006>008-014>016-023>028-210700-
NORTHWEST WISCONSIN

CITY           SKY/WX    TMP DP  RH WIND       PRES   REMARKS
SUPERIOR ARPT  CLOUDY    35  30  83 NW15G21   29.40R WCI  25
ASHLAND        CLOUDY    34  32  92 W12G20    29.35S WCI  25
6HR MIN TEMP:  33; 6HR MAX TEMP:  38; 6HR PCP: TRACE;

HAYWARD        LGT SNOW  33  30  88 W8        29.39F FOG     WCI  26
6HR MIN TEMP:  33; 6HR MAX TEMP:  38; 6HR PCP: TRACE;

SIREN          LGT SNOW  33  32  96 W9        29.46R WCI  25
CUMBERLAND     FLURRIES  32  30  93 W17       29.44S WCI  21
RICE LAKE      FLURRIES  34  31  89 W10       29.46S WCI  26
CHETEK         FLURRIES  35  31  87 W6G17     29.45S WCI  30
LADYSMITH      FLURRIES  34  32  91 W10       29.43F WCI  26
EAU CLAIRE     NOT AVBL
MENOMONIE      CLOUDY    36  32  84 W13G18    29.48S WCI  27
NEW RICHMOND   LGT SNOW  34  30  87 W14G21    29.50S WCI  24
OSCEOLA        CLOUDY    36  30  80 W15G22    29.53S WCI  26
$$

WIZ003>005-009-010-017-018-210700-
NORTH CENTRAL WISCONSIN

CITY           SKY/WX    TMP DP  RH WIND       PRES   REMARKS
MANITOWISH WTR LGT SNOW  31  31  99 W7G16     29.33S WCI  24
ARBOR VITAE    FLURRIES  33  30  89 W12       29.33S WCI  24
WOODRUFF       FLURRIES  33  30  89 W12       29.33S WCI  24
RHINELANDER    CLOUDY    33  27  78 W14G22    29.35F WCI  23
6HR MIN TEMP:  33; 6HR MAX TEMP:  36; 6HR PCP:  0.01;

EAGLE RIVER    CLOUDY    32  27  80 W14       29.32S WCI  22
LAND O LAKES   FLURRIES  32  29  89 W8        29.31F WCI  25
PHILLIPS       FLURRIES  32  29  90 W9G16     29.37S WCI  24
TOMAHAWK       FLURRIES  32  27  81 W8        29.38S WCI  25
MEDFORD        FLURRIES  32  30  92 W14G20    29.40F WCI  22
MERRILL        CLOUDY    34  30  86 W10       29.39S WCI  26
$$

WIZ029-030-035-036-043>047-210700-
CENTRAL WISCONSIN

CITY           SKY/WX    TMP DP  RH WIND       PRES   REMARKS
WAUSAU         CLOUDY    35  29  78 W14       29.39S WCI  26
6HR MIN TEMP:  35; 6HR MAX TEMP:  38;

MOSINEE        FLURRIES  34  32  93 W12       29.43S WCI  25
MARSHFIELD     FLURRIES  35  31  85 W15G22    29.43S WCI  25
6HR MIN TEMP:  35; 6HR MAX TEMP:  38; 6HR PCP: TRACE;

STEVENS POINT  LGT RAIN  34  30  86 W13G20    29.44R WCI  25
WAUPACA        CLOUDY    40  29  65 SW9       29.44F WCI  34
WAUTOMA        NOT AVBL
WISC RAPIDS    CLOUDY    37  27  67 W16G22    29.46S WCI  28
6HR MIN TEMP:  37; 6HR MAX TEMP:  40; 6HR PCP: TRACE;

CAMP DOUGLAS   MOCLDY    37  37 100 W12       29.48S WCI  30
$$

WIZ011>013-019>022-031-037>040-048>050-210700-
NORTHEAST WISCONSIN

CITY           SKY/WX    TMP DP  RH WIND       PRES   REMARKS
ANTIGO         CLOUDY    33  29  85 W15       29.37F WCI  23
SHAWANO        CLOUDY    40  28  64 SW6       29.42F
OCONTO         CLOUDY    38  30  71 SW8       29.41S WCI  33
STURGEON BAY   CLOUDY    39  28  65 SW15G21   29.42F WCI  31
6HR MIN TEMP:  39; 6HR MAX TEMP:  41;

GREEN BAY      CLOUDY    41  29  62 SW10      29.44S
6HR MIN TEMP:  40; 6HR MAX TEMP:  42; 6HR PCP: TRACE;

MANITOWOC      NOT AVBL
APPLETON       DRIZZLE   37  30  75 W8        29.45S WCI  31
CLINTONVILLE   CLOUDY    37  28  70 W9        29.43F WCI  31
OSHKOSH        CLOUDY    40  29  64 SW8       29.46F WCI  34
6HR MIN TEMP:  40; 6HR MAX TEMP:  42;

$$

WIZ032>034-041-042-053>061-210700-
SOUTHWEST WISCONSIN

CITY           SKY/WX    TMP DP  RH WIND       PRES   REMARKS
LA CROSSE      CLOUDY    41  31  67 W15       29.52F
6HR MIN TEMP:  41; 6HR MAX TEMP:  44;

SPARTA         CLOUDY    38  32  78 W9        29.51S WCI  32
VIROQUA        CLOUDY    37  32  82 W13G24    29.52S WCI  29
BOSCOBEL       MOCLDY    42  30  62 W16G24    29.57S
6HR MIN TEMP:  42; 6HR MAX TEMP:  45; 6HR PCP: TRACE;

PRAIRIE DU CHI FAIR      40  30  66 W9G18     29.59S WCI  34
PLATTEVILLE    FAIR      39  32  77 W14       29.59S WCI  30
$$

WIZ056-057-062-063-064-067-068-210700-
SOUTH CENTRAL WISCONSIN

CITY           SKY/WX    TMP DP  RH WIND       PRES   REMARKS
REEDSBURG      MOCLDY    38  31  75 W14G21    29.51S WCI  30
BARABOO/DELLS  CLOUDY    38  30  72 W12G22    29.50S WCI  31
LONE ROCK      NOT AVBL
MINERAL POINT  CLOUDY    41  32  70 W12       29.56R
MADISON        CLOUDY    41  30  65 VRB7      29.53F
6HR MIN TEMP:  40; 6HR MAX TEMP:  43;

MIDDLETON      MOCLDY    40  30  67 W13       29.53F WCI  33
WATERTOWN      CLOUDY    40  31  70 SW12      29.52S WCI  33
MONROE         MOCLDY    37  32  81 SW16      29.57S WCI  28
JANESVILLE     MOCLDY    41  32  70 W13       29.56S
$$

WIZ051-052-058>065-066-070>072-210700-
SOUTHEAST WISCONSIN

CITY           SKY/WX    TMP DP  RH WIND       PRES   REMARKS
MILWAUKEE      CLOUDY    43  28  55 SW12      29.54S
6HR MIN TEMP:  43; 6HR MAX TEMP:  45; 6HR PCP: TRACE;

WAUKESHA       CLOUDY    37  30  75 SW16      29.54S WCI  28
MILWAUKEE/TIMM CLOUDY    41  28  60 W12G18    29.53S
RACINE         CLOUDY    43  31  62 SW13G20   29.56S
6HR MIN TEMP:  43; 6HR MAX TEMP:  44;

BURLINGTON     CLOUDY    39  31  73 W14       29.56R WCI  31
KENOSHA        CLOUDY    42  32  67 W17       29.56S
6HR MIN TEMP:  41; 6HR MAX TEMP:  44;

FOND DU LAC    CLOUDY    40  28  62 SW10      29.48F WCI  33
6HR MIN TEMP:  40; 6HR MAX TEMP:  42; 6HR PCP: TRACE;

SHEBOYGAN      CLOUDY    40  30  67 W10       29.48R WCI  33
6HR MIN TEMP:  40; 6HR MAX TEMP:  42;

WEST BEND      CLOUDY    39  28  65 W10       29.50S WCI  32
JUNEAU         MOCLDY    39  29  69 SW14      29.52S WCI  30
$$

LSZ147-162-210700-
LAKE SUPERIOR

STATION/POSITION TIME  TEMP    WIND        PRES    WAVE
                       AIR SEA DIR/SP/G            HT/PER
                 (UTC) (F)     (DEG/KT/KT) (MB)    (FT/S)
DEVILS ISLAND    0500   36     250/ 23/ 28  992.9F
PORT WING        0500   37     250/ 15/ 22  994.6
SAXON HARBOR     0540   35     220/  3/ 11  993.6S
$$

LMZ867-665-643>646-210700-
LAKE MICHIGAN

STATION/POSITION TIME  TEMP    WIND        PRES    WAVE
                       AIR SEA DIR/SP/G            HT/PER
                 (UTC) (F)     (DEG/KT/KT) (MB)    (FT/S)
CHAMBERS ISLAND  0500   39     210/  9/ 11  995.9S
NORTHPORT PIER   0500   39     230/  5/  9  995.6S
SISTER BAY       0502   40     250/ 15/ 16   N/A
KEWAUNEE LAKESHO 0500   40     230/  8/ 11  996.5S
SHEBOYGAN LAKESH 0500   42     240/ 13/ 16  999.0F
PORT WASHINGTON  0540   43     260/  9/ 16 1000.0S
MILWAUKEE LAKESH 0500   44     250/ 12/ 19   N/A
KENOSHA   LAKESH 0500   44     230/ 12/ 18 1001.4F
$$

TC  - TEMPERATURE IN CELSIUS
VSB - VISIBILITY IN STATUTE MILES
WCI - WIND CHILL INDEX
HX  - HEAT INDEX



USA.gov is the U.S. government's official web portal to all federal, state and local government web resources and services.